Location: Ceske Budejovice
(48.9830°N, 14.4670°E)
Time: 23:42:18
(UTC+02:00)

ISS - Pass Details

Date: 27 March 2019
Orbit: 408 x 410 km, 51.6° (Epoch: 26 April)

Event Time Altitude Azimuth Distance (km) Brightness Sun altitude
Rises 21:44:41 0° 287° (WNW) 2,338 0.9 -29.8°
Reaches altitude 10° 21:46:48 10° 290° (WNW) 1,475 -0.3 -30.0°
Enters shadow 21:47:01 12° 291° (WNW) 1,383 -0.4 -30.0°
